Location: Fayetteville
(35.0530°N, 78.8790°W)
Time: 07:37:32
(UTC-05:00)

Tiangong - Visible Passes

Search period start: 06 December 2021 00:00
Search period end: 16 December 2021 00:00
Orbit: 380 x 384 km, 41.5° (Epoch: 06 December)

Date Brightness Start Highest point End Pass type
(mag) Time Alt. Az. Time Alt. Az. Time Alt. Az.
06 Dec 2.8 18:59:45 10° SW 19:01:36 32° SW 19:01:36 32° SW visible
07 Dec 2.1 17:59:34 10° SW 18:02:28 34° SSE 18:04:08 19° E visible
07 Dec 4.7 19:36:11 10° W 19:36:18 11° W 19:36:18 11° W visible
08 Dec 1.1 18:35:29 10° WSW 18:38:37 68° NNW 18:38:46 66° N visible
09 Dec 1.2 17:34:58 10° SW 17:38:05 66° SSE 17:41:10 10° ENE visible
09 Dec 3.7 19:12:09 10° WNW 19:13:19 18° WNW 19:13:19 18° WNW visible
10 Dec 1.8 18:11:17 10° W 18:14:20 42° NNW 18:15:39 26° NE visible
11 Dec 2.9 18:48:03 10° WNW 18:50:06 24° NNW 18:50:06 24° NNW visible
12 Dec 2.3 17:47:07 10° WNW 17:49:59 31° NNW 17:52:21 13° NE visible
13 Dec 2.5 18:23:47 10° WNW 18:26:26 24° N 18:26:45 23° N visible
14 Dec 3.5 19:00:03 10° NW 19:01:10 18° NW 19:01:10 18° NW visible
15 Dec 2.5 17:59:18 10° NW 18:01:59 25° N 18:03:27 18° NE visible
